Location: Bailleul
(50.3375°N, 2.8513°E)
Time: 13:16:14
(UTC+00:00)

Lacrosse 5 - Pass Details

Date: 16 June 2021
Orbit: 715 x 724 km, 57.0° (Epoch: 28 July)

Event Time Altitude Azimuth Distance (km) Brightness Sun altitude
Rises 21:04:31 0° 300° (WNW) 3,127 6.6 -7.8°
Reaches altitude 10° 21:07:06 10° 290° (WNW) 2,204 5.4 -8.0°
Maximum altitude 21:11:32 31° 229° (SW) 1,239 3.1 -8.4°
Drops below altitude 10° 21:15:59 10° 168° (SSE) 2,198 3.8 -8.9°
Enters shadow 21:16:11 - 167° (SSE) 2,269 3.9 -8.9°
